RESOURCESAT-2

Last updated on Wed Sep 17 2025 00:02:30 GMT+0000 (Coordinated Universal Time)

1 37387U 11015A 25259.51053728 .00000063 00000+0 49155-4 0 9996 2 37387 98.7998 323.3998 0004782 288.6896 71.3762 14.21590031747296
UTC large
Height (km)
Speed (km/s)
/
Latitude / Longitude
Inclination (degrees)
Orbital Period (minutes)
Azimuth
Elevation
Range (km)
Doppler Factor

Next 0 passes for location: London (51.5072 / 0.1276)

Sorry there are no passes over London.